METAR UND TAF INFORMATION
LGSK 010350Z 00000KT CAVOK 24/20 Q1013

 FLUGHAFENKARTE

 RUNWAY INFORMATION
Runway 02 Runway length 5341 ft Runway width 98 ft
Runway elevation 9 ft Runway displaced threshold 190 ft Runway heading 19
Runway 20 Runway length 5341 ft Runway width 98 ft
Runway elevation 54 ft Runway displaced threshold 0 ft Runway heading 199

 AIRPORT FREQUENCIES
Type A/G Name SKIATHOS R Frequency 563.7 MHZ
Type APP Name SKIATHOS A Frequency 126.05 MHZ
Type TWR Name SKIATHOS T Frequency 126.05 MHZ

 AIRPORT NEAR NAVIGATION AIDS
Type NDB Name Skiathos Frequency 326 KHZ